SUNNYSIDE Weather Reports


Display with metric or nautical units.
time (UTC)temp
F
wind
direction
speed
MPH
gust
MPH
rain 1hr
in
rain 24hr
in
rain mn
in
humidity
%
barometer
mb
20260510165501 42 343 7.0 14.0 0.00 0.00 0.00 37 995.1
20260510165100 43 309 6.0 14.0 0.00 0.00 0.00 38 995.0
20260510164605 42 340 6.0 14.0 0.00 0.00 0.00 40 995.0
20260510164058 41 38 6.0 16.0 0.00 0.00 0.00 38 995.1
20260510163558 41 313 6.0 15.0 0.00 0.00 0.00 40 994.9
20260510163100 41 344 5.0 14.0 0.00 0.00 0.00 38 995.0
20260510162559 41 324 8.0 14.0 0.00 0.00 0.00 37 995.0
20260510162057 42 23 8.0 16.0 0.00 0.00 0.00 38 994.9
20260510161556 42 360 7.0 17.0 0.00 0.00 0.00 37 994.9
20260510161055 41 355 11.0 17.0 0.00 0.00 0.00 39 994.8
20260510160553 42 355 7.0 17.0 0.00 0.00 0.00 37 994.8
20260510160054 42 340 8.0 17.0 0.00 0.00 0.00 37 994.6
20260510155555 42 351 8.0 12.0 0.00 0.00 0.00 39 994.7
20260510155055 42 323 5.0 15.0 0.00 0.00 0.00 38 994.7
20260510154556 42 355 8.0 15.0 0.00 0.00 0.00 37 994.7
20260510154050 42 346 5.0 12.0 0.00 0.00 0.00 38 994.7
20260510153549 41 360 7.0 14.0 0.00 0.00 0.00 39 994.5
20260510153048 41 39 5.0 14.0 0.00 0.00 0.00 39 994.7
20260510152548 41 302 7.0 13.0 0.00 0.00 0.00 39 994.6
20260510152047 41 331 8.0 16.0 0.00 0.00 0.00 39 994.6
20260510151555 41 346 8.0 16.0 0.00 0.00 0.00 39 994.5
20260510151047 41 9 5.0 16.0 0.00 0.00 0.00 39 994.5
20260510150547 41 335 9.0 16.0 0.00 0.00 0.00 39 994.6
20260510150047 41 14 6.0 12.0 0.00 0.00 0.00 38 994.6
20260510145546 42 19 4.0 12.0 0.00 0.00 0.00 39 994.6
20260510145044 41 50 6.0 12.0 0.00 0.00 0.00 40 994.6
20260510144600 40 59 6.0 12.0 0.00 0.00 0.00 42 994.6
20260510144042 40 322 7.0 11.0 0.00 0.00 0.00 41 994.7
20260510143540 40 355 5.0 12.0 0.00 0.00 0.00 42 994.6
20260510143053 40 355 7.0 12.0 0.00 0.00 0.00 47 994.7
20260510142538 40 331 5.0 10.0 0.00 0.00 0.00 45 994.7
20260510142039 40 334 5.0 10.0 0.00 0.00 0.00 47 994.6
20260510141537 39 360 5.0 10.0 0.00 0.00 0.00 46 994.6
20260510141036 38 294 5.0 11.0 0.00 0.00 0.00 48 994.5
20260510140534 38 355 6.0 11.0 0.00 0.00 0.00 46 994.5
20260510140033 38 38 4.0 9.0 0.00 0.00 0.00 47 994.5
20260510135532 38 343 4.0 8.0 0.00 0.00 0.00 49 994.5
20260510135031 37 340 5.0 8.0 0.00 0.00 0.00 48 994.5
20260510134533 37 342 5.0 8.0 0.00 0.00 0.00 49 994.5
20260510134030 37 309 3.0 10.0 0.00 0.00 0.00 46 994.5
20260510133529 37 348 5.0 10.0 0.00 0.00 0.00 45 994.3
20260510133029 37 317 5.0 9.0 0.00 0.00 0.00 46 994.4
20260510132530 37 304 5.0 10.0 0.00 0.00 0.00 46 994.2
20260510132028 37 317 5.0 12.0 0.00 0.00 0.00 46 994.2
20260510131540 37 341 6.0 10.0 0.00 0.00 0.00 47 994.0
20260510131029 36 305 6.0 10.0 0.00 0.00 0.00 49 994.1
20260510130525 36 342 6.0 10.0 0.00 0.00 0.00 49 994.0
20260510130024 35 303 6.0 10.0 0.00 0.00 0.00 50 993.9
20260510125522 34 322 5.0 8.0 0.00 0.00 0.00 51 993.8
20260510125023 34 343 5.0 8.0 0.00 0.00 0.00 52 993.8
20260510124523 34 311 5.0 9.0 0.00 0.00 0.00 52 993.7
20260510124022 33 302 5.0 9.0 0.00 0.00 0.00 53 993.8
20260510123522 33 327 6.0 10.0 0.00 0.00 0.00 53 993.7
20260510123022 33 306 4.0 9.0 0.00 0.00 0.00 54 993.6
20260510122520 32 300 4.0 7.0 0.00 0.00 0.00 55 993.5
20260510122020 32 309 4.0 7.0 0.00 0.00 0.00 55 993.5
20260510121520 32 314 3.0 5.0 0.00 0.00 0.00 56 993.5
20260510121020 31 276 2.0 5.0 0.00 0.00 0.00 56 993.3
20260510120518 31 291 2.0 5.0 0.00 0.00 0.00 56 993.4
20260510120019 31 286 3.0 5.0 0.00 0.00 0.00 56 993.3
20260510115517 30 294 2.0 5.0 0.00 0.00 0.00 57 993.2
20260510115017 30 299 3.0 5.0 0.00 0.00 0.00 57 993.0
20260510114516 29 278 3.0 6.0 0.00 0.00 0.00 57 993.1
20260510114019 29 278 2.0 7.0 0.00 0.00 0.00 57 993.0
20260510113515 29 290 4.0 7.0 0.00 0.00 0.00 57 992.9
20260510113019 29 296 4.0 6.0 0.00 0.00 0.00 57 992.8
20260510112516 29 289 3.0 8.0 0.00 0.00 0.00 57 992.7
20260510112014 29 285 4.0 8.0 0.00 0.00 0.00 57 992.7
20260510111513 29 278 3.0 5.0 0.00 0.00 0.00 57 992.7
20260510111013 29 286 2.0 5.0 0.00 0.00 0.00 57 992.6
20260510110510 29 290 3.0 5.0 0.00 0.00 0.00 57 992.4
20260510110010 29 292 2.0 5.0 0.00 0.00 0.00 57 992.4
20260510105509 29 299 3.0 5.0 0.00 0.00 0.00 56 992.4
20260510105014 29 291 2.0 5.0 0.00 0.00 0.00 56 992.3
20260510104507 29 318 3.0 6.0 0.00 0.00 0.00 56 992.3
20260510104007 29 302 3.0 6.0 0.00 0.00 0.00 56 992.3
20260510103507 29 288 2.0 5.0 0.00 0.00 0.00 56 992.2
20260510103007 29 285 3.0 5.0 0.00 0.00 0.00 57 992.2
20260510102506 29 288 2.0 3.0 0.00 0.00 0.00 57 992.1
20260510102008 29 286 2.0 4.0 0.00 0.00 0.00 56 992.1
20260510101504 29 292 2.0 4.0 0.00 0.00 0.00 56 992.0
20260510101004 29 286 2.0 4.0 0.00 0.00 0.00 56 992.0
20260510100503 29 284 1.0 4.0 0.00 0.00 0.00 56 991.9
20260510100003 29 286 2.0 4.0 0.00 0.00 0.00 57 991.8
20260510095503 29 275 2.0 4.0 0.00 0.00 0.00 57 991.8
20260510095004 29 291 2.0 4.0 0.00 0.00 0.00 57 991.8
20260510094602 30 291 2.0 3.0 0.00 0.00 0.00 57 991.7
20260510094103 30 293 2.0 4.0 0.00 0.00 0.00 57 991.7
20260510093559 30 290 2.0 4.0 0.00 0.00 0.00 57 991.6
20260510093059 30 294 2.0 5.0 0.00 0.00 0.00 57 991.6
20260510092601 31 290 3.0 5.0 0.00 0.00 0.00 58 991.5
20260510092058 30 290 3.0 6.0 0.00 0.00 0.00 58 991.4
20260510091559 30 298 2.0 4.0 0.00 0.00 0.00 58 991.4
20260510091055 31 300 2.0 4.0 0.00 0.00 0.00 58 991.3
20260510090555 31 300 2.0 5.0 0.00 0.00 0.00 58 991.4
20260510090054 31 292 1.0 4.0 0.00 0.00 0.00 58 991.3
20260510085556 31 289 2.0 4.0 0.00 0.00 0.00 59 991.2
20260510085052 31 297 2.0 5.0 0.00 0.00 0.00 58 991.2
20260510084551 31 298 3.0 7.0 0.00 0.00 0.00 58 991.3
20260510084051 31 290 3.0 7.0 0.00 0.00 0.00 58 991.2
20260510083549 32 292 2.0 4.0 0.00 0.00 0.00 57 991.1
20260510083048 32 296 3.0 7.0 0.00 0.00 0.00 57 991.0
20260510082548 32 295 3.0 7.0 0.00 0.00 0.00 57 991.1
20260510082048 32 290 3.0 5.0 0.00 0.00 0.00 57 991.0
20260510081546 32 298 2.0 4.0 0.00 0.00 0.00 57 990.9
20260510081046 32 307 1.0 3.0 0.00 0.00 0.00 57 990.9
20260510080544 32 307 1.0 4.0 0.00 0.00 0.00 57 990.9
20260510080053 32 307 1.0 4.0 0.00 0.00 0.00 57 991.0
20260510075546 33 300 1.0 4.0 0.00 0.00 0.00 57 990.8
20260510075042 33 317 2.0 5.0 0.00 0.00 0.00 57 990.8
20260510074548 33 309 3.0 8.0 0.00 0.00 0.00 57 990.7
20260510074041 33 300 4.0 8.0 0.00 0.00 0.00 57 990.7
20260510073540 33 317 3.0 5.0 0.00 0.00 0.00 56 990.7
20260510073054 34 307 3.0 4.0 0.00 0.00 0.00 56 990.7
20260510072539 34 309 3.0 5.0 0.00 0.00 0.00 56 990.8
20260510072038 34 317 3.0 6.0 0.00 0.00 0.00 55 990.7
20260510071538 34 302 3.0 6.0 0.00 0.00 0.00 55 990.7
20260510071036 34 319 3.0 5.0 0.00 0.00 0.00 54 990.6
20260510070535 34 320 3.0 5.0 0.00 0.00 0.00 54 990.6
20260510070034 34 317 2.0 8.0 0.00 0.00 0.00 53 990.5
20260510065533 35 332 3.0 8.0 0.00 0.00 0.00 53 990.5
20260510065032 35 321 4.0 6.0 0.00 0.00 0.00 53 990.3
20260510064545 34 326 3.0 6.0 0.00 0.00 0.00 53 990.4
20260510064031 35 337 3.0 6.0 0.00 0.00 0.00 53 990.3
20260510063531 35 331 4.0 6.0 0.00 0.00 0.00 53 990.3
20260510063030 35 306 2.0 6.0 0.00 0.00 0.00 53 990.3
20260510062531 35 322 4.0 6.0 0.00 0.00 0.00 53 990.4
20260510062030 35 347 3.0 9.0 0.00 0.00 0.00 52 990.3
20260510061532 35 340 4.0 8.0 0.00 0.00 0.00 52 990.2
20260510061027 35 298 4.0 8.0 0.00 0.00 0.00 51 990.1
20260510060527 36 319 4.0 8.0 0.00 0.00 0.00 51 990.1
20260510060025 36 309 4.0 8.0 0.00 0.00 0.00 51 990.0
20260510055523 36 326 4.0 6.0 0.00 0.00 0.00 50 990.0
20260510055025 36 335 3.0 6.0 0.00 0.00 0.00 49 989.9
20260510054525 37 350 4.0 8.0 0.00 0.00 0.00 49 989.8
20260510054020 37 355 4.0 9.0 0.00 0.00 0.00 49 989.7
20260510053522 38 5 3.0 9.0 0.00 0.00 0.00 49 989.5
20260510053036 38 14 3.0 8.0 0.00 0.00 0.00 48 989.4
20260510052518 38 22 3.0 11.0 0.00 0.00 0.00 49 989.5
20260510052018 38 355 6.0 11.0 0.00 0.00 0.00 49 989.5
20260510051518 38 350 4.0 11.0 0.00 0.00 0.00 50 989.6
20260510051021 38 360 6.0 11.0 0.00 0.00 0.00 51 989.4
20260510050515 38 360 4.0 9.0 0.00 0.00 0.00 52 989.4
20260510050015 38 347 3.0 7.0 0.00 0.00 0.00 52 989.3
20260510045513 38 22 3.0 9.0 0.00 0.00 0.00 53 989.3
20260510045013 38 351 4.0 9.0 0.00 0.00 0.00 54 989.3
20260510044512 38 36 2.0 8.0 0.00 0.00 0.00 54 989.2
20260510044011 38 342 2.0 8.0 0.00 0.00 0.00 55 989.2
20260510043513 38 324 3.0 6.0 0.00 0.00 0.00 56 989.1
20260510043011 37 5 2.0 5.0 0.00 0.00 0.00 56 989.0
20260510042512 38 24 1.0 5.0 0.00 0.00 0.00 56 989.0
20260510042009 38 40 2.0 6.0 0.00 0.00 0.00 56 988.9
20260510041509 37 28 2.0 6.0 0.00 0.00 0.00 56 988.8
20260510041012 37 32 3.0 6.0 0.00 0.00 0.00 57 988.7
20260510040509 37 22 3.0 6.0 0.00 0.00 0.00 57 988.6
20260510040009 37 26 2.0 6.0 0.00 0.00 0.00 57 988.6
20260510035507 37 10 1.0 3.0 0.00 0.00 0.00 57 988.7
20260510035010 37 11 0.0 3.0 0.00 0.00 0.00 56 988.5
20260510034506 38 11 1.0 4.0 0.00 0.00 0.00 56 988.5
20260510034005 38 25 1.0 4.0 0.00 0.00 0.00 56 988.3
20260510033504 38 36 1.0 3.0 0.00 0.00 0.00 56 988.2
20260510033005 38 28 2.0 5.0 0.00 0.00 0.00 56 988.1
20260510032503 38 43 2.0 5.0 0.00 0.00 0.00 56 988.1
20260510032006 38 29 2.0 4.0 0.00 0.00 0.00 55 988.0
20260510031503 38 32 1.0 4.0 0.00 0.00 0.00 55 987.9
20260510031002 38 20 1.0 3.0 0.00 0.00 0.00 54 987.9
20260510030501 38 20 1.0 3.0 0.00 0.00 0.00 54 987.8
20260510030002 39 20 0.0 3.0 0.00 0.00 0.00 54 987.7
20260510025600 39 20 1.0 3.0 0.00 0.00 0.00 54 987.6
20260510025059 39 12 1.0 3.0 0.00 0.00 0.00 54 987.4
20260510024600 39 351 2.0 4.0 0.00 0.00 0.00 53 987.3
20260510024058 40 346 2.0 4.0 0.00 0.00 0.00 51 987.2
20260510023556 40 348 2.0 5.0 0.00 0.00 0.00 50 987.0
20260510023055 41 342 2.0 8.0 0.00 0.00 0.00 50 986.9
20260510022558 41 319 3.0 8.0 0.00 0.00 0.00 50 986.8
20260510022053 42 325 4.0 6.0 0.00 0.00 0.00 50 986.8
20260510021602 42 341 3.0 8.0 0.00 0.00 0.00 49 986.5
20260510021052 43 331 5.0 9.0 0.00 0.00 0.00 48 986.6
20260510020552 43 343 4.0 10.0 0.00 0.00 0.00 47 986.4
20260510020052 44 343 6.0 12.0 0.00 0.00 0.00 47 986.4
20260510015550 44 323 5.0 13.0 0.00 0.00 0.00 47 986.4
20260510015049 44 314 9.0 13.0 0.00 0.00 0.00 46 986.2
20260510014553 44 321 9.0 13.0 0.00 0.00 0.00 46 986.2
20260510014049 44 323 8.0 15.0 0.00 0.00 0.00 45 986.0
20260510013552 45 338 10.0 15.0 0.00 0.00 0.00 45 985.9
20260510013053 45 335 7.0 14.0 0.00 0.00 0.00 45 985.9
20260510012548 45 322 8.0 16.0 0.00 0.00 0.00 45 985.9
20260510012046 45 346 11.0 16.0 0.00 0.00 0.00 45 985.7
20260510011546 45 342 7.0 13.0 0.00 0.00 0.00 46 985.6
20260510011045 45 337 7.0 14.0 0.00 0.00 0.00 46 985.6
20260510010545 45 346 8.0 15.0 0.00 0.00 0.00 46 985.6
20260510010047 45 342 9.0 15.0 0.00 0.00 0.00 46 985.5
20260510005545 45 311 8.0 13.0 0.00 0.00 0.00 46 985.5
20260510005043 45 355 8.0 13.0 0.00 0.00 0.00 46 985.5
20260510004544 45 350 6.0 12.0 0.00 0.00 0.00 46 985.5
20260510004044 45 332 8.0 13.0 0.00 0.00 0.00 46 985.4
20260510003543 45 360 7.0 14.0 0.00 0.00 0.00 47 985.4
20260510003057 45 342 8.0 14.0 0.00 0.00 0.00 46 985.4
20260510002543 45 10 8.0 15.0 0.00 0.00 0.00 46 985.4
20260510002041 45 343 9.0 15.0 0.00 0.00 0.00 46 985.3
20260510001541 45 328 7.0 15.0 0.00 0.00 0.00 45 985.3
20260510001041 45 328 7.0 15.0 0.00 0.00 0.00 45 985.3
20260510000541 46 323 9.0 15.0 0.00 0.00 0.00 45 985.3
20260510000041 46 360 8.0 15.0 0.00 0.00 0.00 44 985.2
20260509235539 46 342 8.0 14.0 0.00 0.00 0.00 44 985.1
20260509235039 46 5 9.0 15.0 0.00 0.00 0.00 44 985.1
20260509234540 46 348 6.0 15.0 0.00 0.00 0.00 44 985.1
20260509234040 46 340 9.0 15.0 0.00 0.00 0.00 43 985.0
20260509233539 46 346 8.0 17.0 0.00 0.00 0.00 43 985.0
20260509233038 47 30 10.0 17.0 0.00 0.00 0.00 42 985.0
20260509232538 46 348 9.0 16.0 0.00 0.00 0.00 42 984.9
20260509232037 46 334 11.0 16.0 0.00 0.00 0.00 42 984.9
20260509231537 47 315 10.0 16.0 0.00 0.00 0.00 42 984.8
20260509231036 47 306 9.0 15.0 0.00 0.00 0.00 42 984.8
20260509230536 47 345 10.0 15.0 0.00 0.00 0.00 41 984.7
20260509230036 47 329 9.0 15.0 0.00 0.00 0.00 41 984.6
20260509225535 47 355 8.0 15.0 0.00 0.00 0.00 41 984.6
20260509225034 47 340 8.0 14.0 0.00 0.00 0.00 40 984.5
20260509224534 47 34 5.0 14.0 0.00 0.00 0.00 41 984.6
20260509224034 47 349 5.0 14.0 0.00 0.00 0.00 40 984.4
20260509223534 47 41 5.0 15.0 0.00 0.00 0.00 41 984.4
20260509223034 47 337 10.0 15.0 0.00 0.00 0.00 39 984.5
20260509222533 47 355 7.0 14.0 0.00 0.00 0.00 40 984.5
20260509222035 47 329 9.0 16.0 0.00 0.00 0.00 39 984.4
20260509221533 47 355 7.0 16.0 0.00 0.00 0.00 39 984.5
20260509221033 48 333 9.0 14.0 0.00 0.00 0.00 39 984.5
20260509220533 48 331 7.0 16.0 0.00 0.00 0.00 39 984.4
20260509220040 48 328 6.0 16.0 0.00 0.00 0.00 39 984.3
20260509215532 48 5 8.0 13.0 0.00 0.00 0.00 39 984.4
20260509215031 48 355 6.0 13.0 0.00 0.00 0.00 39 984.3
20260509214532 48 332 8.0 13.0 0.00 0.00 0.00 39 984.3
20260509214032 48 326 8.0 17.0 0.00 0.00 0.00 39 984.1
20260509213530 48 323 8.0 18.0 0.00 0.00 0.00 38 984.2
20260509213030 48 341 8.0 14.0 0.00 0.00 0.00 38 984.2
20260509212530 48 342 8.0 16.0 0.00 0.00 0.00 39 984.0
20260509212030 48 342 10.0 17.0 0.00 0.00 0.00 38 984.1
20260509211529 48 343 11.0 17.0 0.00 0.00 0.00 37 984.2
20260509211029 48 325 10.0 17.0 0.00 0.00 0.00 38 984.1
20260509210530 48 344 10.0 17.0 0.00 0.00 0.00 38 984.0
20260509210029 49 312 11.0 16.0 0.00 0.00 0.00 36 984.2
20260509205528 49 315 10.0 18.0 0.00 0.00 0.00 38 984.0
20260509205027 49 342 11.0 18.0 0.00 0.00 0.00 37 983.9
20260509204527 49 313 9.0 18.0 0.00 0.00 0.00 38 983.9
20260509204028 49 360 12.0 18.0 0.00 0.00 0.00 36 983.9
20260509203530 49 316 10.0 17.0 0.00 0.00 0.00 36 984.0
20260509203035 49 325 11.0 18.0 0.00 0.00 0.00 37 984.0
20260509202529 49 334 12.0 18.0 0.00 0.00 0.00 38 983.9
20260509202027 48 332 12.0 24.0 0.00 0.00 0.00 37 983.9
20260509201527 49 345 14.0 24.0 0.00 0.00 0.00 36 983.9
20260509201026 49 319 11.0 18.0 0.00 0.00 0.00 36 983.9
20260509200527 49 292 10.0 18.0 0.00 0.00 0.00 36 983.9
20260509200036 49 338 12.0 20.0 0.00 0.00 0.00 36 983.9
20260509195526 50 313 13.0 20.0 0.00 0.00 0.00 37 984.1
20260509195026 49 325 9.0 18.0 0.00 0.00 0.00 36 983.9
20260509194541 50 309 12.0 22.0 0.00 0.00 0.00 35 984.0
20260509194029 51 346 15.0 22.0 0.00 0.00 0.00 35 983.9
20260509193525 51 346 11.0 23.0 0.00 0.00 0.00 38 983.9
20260509193025 50 355 11.0 18.0 0.00 0.00 0.00 37 983.8
20260509192524 50 347 10.0 17.0 0.00 0.00 0.00 38 983.9
20260509192024 50 31 10.0 20.0 0.00 0.00 0.00 39 983.9
20260509191524 50 336 12.0 20.0 0.00 0.00 0.00 38 983.8
20260509191026 50 355 11.0 19.0 0.00 0.00 0.00 38 983.9
20260509190523 50 360 9.0 20.0 0.00 0.00 0.00 39 983.8
20260509190023 50 346 11.0 20.0 0.00 0.00 0.00 38 983.8
20260509185522 50 346 12.0 21.0 0.00 0.00 0.00 38 983.7
20260509185023 50 355 11.0 21.0 0.00 0.00 0.00 39 983.8
20260509184622 50 326 13.0 20.0 0.00 0.00 0.00 38 983.8
20260509184026 50 293 11.0 20.0 0.00 0.00 0.00 38 983.8
20260509183521 49 338 11.0 21.0 0.00 0.00 0.00 37 983.7
20260509183021 50 342 12.0 21.0 0.00 0.00 0.00 38 983.8
20260509182524 49 311 12.0 19.0 0.00 0.00 0.00 39 983.6
20260509182023 50 335 13.0 19.0 0.00 0.00 0.00 38 983.8
20260509181520 50 325 12.0 22.0 0.00 0.00 0.00 37 983.7
20260509181020 49 355 13.0 22.0 0.00 0.00 0.00 38 983.7
20260509180523 49 288 14.0 21.0 0.00 0.00 0.00 38 983.8
20260509180019 49 296 14.0 23.0 0.00 0.00 0.00 37 983.7
20260509175518 49 328 14.0 23.0 0.00 0.00 0.00 37 983.7
20260509175018 49 307 10.0 21.0 0.00 0.00 0.00 38 983.6
20260509174536 49 336 14.0 22.0 0.00 0.00 0.00 37 983.6
20260509174021 48 306 11.0 22.0 0.00 0.00 0.00 38 983.7
20260509173516 48 316 12.0 21.0 0.00 0.00 0.00 38 983.7
20260509173016 49 331 15.0 21.0 0.00 0.00 0.00 37 983.7
20260509172519 48 309 12.0 20.0 0.00 0.00 0.00 40 983.7
20260509172016 48 290 12.0 20.0 0.00 0.00 0.00 38 983.7
20260509171513 48 273 13.0 24.0 0.00 0.00 0.00 37 983.7
20260509171011 48 278 14.0 24.0 0.00 0.00 0.00 37 983.6
20260509170511 48 345 13.0 21.0 0.00 0.00 0.00 38 983.6
20260509170010 48 318 13.0 20.0 0.00 0.00 0.00 37 983.5